Temperature
16 16 16 15 15 15 15 15 15 15 15 14 14 14 14 14 14 14 14 14 14 14 14 13 13 13 13 13 13 13 13 13 12 12 12 12 12 11 11 11 11 11 11
16 16 16 15 15 15 15 15 15 15 15 14 14 14 14 14 14 14 14 14 14 14 14 14 13 13 13 13 13 13 13 13 12 12 12 12 11 11 11 11 11 11 11
16 16 16 15 15 15 15 15 15 14 14 14 14 14 14 14 14 14 14 14 14 14 14 14 13 13 13 13 13 13 13 13 12 12 12 12 12 11 11 11 11 11 11
16 16 15 15 15 15 15 15 14 14 14 14 14 14 14 14 14 14 14 14 14 14 14 13 13 13 13 13 13 13 13 12 12 12 12 12 12 11 11 11 11 11 11
16 15 15 15 15 15 15 14 14 14 14 14 14 14 14 14 14 14 14 14 14 14 13 13 13 13 13 13 13 13 12 12 12 12 12 12 12 11 11 11 11 11 11
15 15 15 15 15 15 14 14 14 14 14 14 14 13 13 13 13 13 13 13 13 13 13 13 13 13 13 13 12 12 12 12 12 12 12 12 11 11 11 11 11 11 10
15 15 15 15 15 14 14 14 14 14 14 14 13 13 13 13 13 13 13 13 13 13 13 13 13 13 12 12 12 12 12 12 12 11 11 11 11 11 11 11 10 10 10
15 15 15 14 14 14 14 14 14 14 13 13 13 13 13 13 13 13 13 13 13 13 13 12 12 12 12 12 12 12 12 12 11 11 11 11 11 11 11 10 10 10 10
15 14 14 14 14 14 14 14 13 13 13 13 13 13 13 13 13 13 13 13 12 12 12 12 12 12 12 12 12 12 12 11 11 11 11 11 11 10 10 10 10 10 10
14 14 14 14 14 14 13 13 13 13 13 13 13 13 12 13 12 12 12 12 12 12 12 12 11 11 11 11 11 11 11 11 11 11 11 10 10 10 10 10 10 9 9
14 14 14 13 13 13 13 13 13 13 13 13 13 12 12 12 12 12 12 12 12 12 12 11 11 11 11 11 11 11 11 11 11 10 10 10 10 10 10 10 9 9 9
14 13 13 13 13 13 13 13 12 12 12 12 12 12 12 12 12 12 11 11 11 11 11 11 11 11 11 11 10 10 10 10 10 10 10 10 10 10 10 9 9 9 9
13 13 13 13 13 13 12 12 12 12 12 12 12 12 12 12 12 11 11 11 11 11 11 11 10 10 10 10 10 10 10 10 9 9 9 9 9 9 9 9 9 9 8
13 13 13 13 13 12 12 12 12 12 12 11 12 12 12 11 11 11 11 11 11 11 10 10 10 10 10 10 10 9 9 9 9 9 9 9 9 8 8 8 8 8 8
13 13 13 12 12 12 12 12 12 12 12 11 11 12 11 12 11 11 11 11 10 10 10 10 10 9 9 9 9 9 9 9 9 9 8 8 8 8 8 8 8 8 8
12 12 12 12 12 12 12 12 11 11 11 11 11 11 11 11 11 11 11 10 10 10 10 10 10 9 9 9 9 9 9 9 8 8 8 8 8 8 8 7 7 7 7
12 12 12 12 12 11 11 11 11 11 11 11 11 11 11 11 11 10 10 10 10 9 9 9 9 9 9 9 9 9 8 8 8 8 8 8 8 7 7 7 7 7 7
12 12 11 11 11 11 11 11 11 11 11 11 10 10 10 10 10 10 10 10 9 9 9 9 9 9 9 9 8 8 8 8 8 8 8 7 7 7 7 7 7 7 6
11 11 11 11 11 11 11 11 11 11 10 10 10 10 10 10 10 10 10 9 10 9 9 9 9 9 8 8 8 8 8 8 8 7 7 7 7 7 7 6 6 6 6
11 11 11 11 11 11 11 11 10 10 10 10 10 10 10 10 9 9 9 9 9 9 9 9 9 8 8 8 8 8 8 7 7 7 7 7 7 7 6 6 6 6 6
10 10 10 10 10 10 10 10 10 10 10 10 10 10 10 9 9 9 9 9 9 9 9 9 8 8 8 8 8 7 7 7 7 7 7 7 7 6 6 6 6 5 5
10 10 10 10 10 10 10 10 10 10 10 9 9 9 9 9 9 9 9 9 9 9 8 8 8 8 8 8 7 7 7 7 7 7 7 6 6 6 6 6 5 5 5
9 9 9 9 9 9 9 9 9 9 9 9 9 9 9 9 9 8 8 8 8 8 8 8 8 8 8 7 7 7 7 7 7 7 7 6 6 6 6 5 5 5 5
9 9 9 9 9 9 9 9 9 9 9 8 8 8 8 8 8 8 8 8 8 8 8 8 8 7 7 7 7 7 7 7 7 7 6 6 6 6 6 5 5 5 4
8 8 8 8 8 8 8 8 8 8 8 8 8 8 8 8 8 8 8 8 8 8 7 7 7 7 7 7 7 7 7 7 7 6 6 6 6 5 5 5 5 4 4
8 8 8 8 8 8 8 8 8 8 8 8 8 8 8 8 7 7 7 7 7 7 7 7 7 7 7 7 7 7 7 6 6 6 6 6 5 5 5 5 4 4 4
Wind_Speed
3 2 2 1 1 1 1 2 2 1 1 1 1 1 1 1 1 1 1 1 1 0 0 1 1 1 1 1 2 2 2 3 3 1 1 1 0 1 2 2 3 3 3
3 3 3 2 1 1 1 2 1 1 1 2 2 1 1 0 1 1 1 1 1 1 1 1 1 1 1 1 2 2 2 3 4 3 1 0 0 0 1 1 2 2 2
3 3 3 2 2 2 2 2 2 2 1 1 2 1 1 1 1 1 1 1 2 2 2 2 2 2 2 1 2 2 2 2 2 3 1 0 0 1 1 2 2 3 3
3 3 3 3 3 3 2 2 2 2 2 2 1 1 1 1 1 1 1 1 1 1 1 2 2 3 3 3 2 3 3 3 3 2 1 0 0 0 1 0 1 2 2
3 3 4 3 3 2 2 2 2 2 2 2 2 1 1 1 1 1 1 1 1 1 1 1 2 3 4 3 3 3 4 3 2 2 1 1 1 1 1 1 1 1 2
3 3 3 3 3 3 2 2 3 2 2 2 2 1 1 1 2 2 2 1 1 2 2 1 1 1 2 3 4 5 6 5 4 3 2 2 3 3 2 2 2 0 2
3 3 3 3 3 3 3 2 3 3 3 2 2 2 2 2 2 2 2 2 2 2 2 2 1 1 1 1 2 2 3 4 6 5 4 5 4 4 3 2 3 3 3
3 3 3 3 3 3 3 3 3 2 3 3 3 3 2 3 3 3 2 1 1 2 2 2 2 2 1 2 2 1 1 2 3 3 4 5 4 4 4 4 3 2 1
4 4 4 4 4 3 4 4 3 3 3 3 2 3 3 3 3 3 2 1 1 2 2 2 2 2 3 3 3 2 1 1 1 3 3 3 3 4 6 4 3 2 1
5 5 4 4 4 5 5 4 3 3 3 3 2 3 4 4 4 3 3 2 2 2 1 2 3 3 3 4 3 3 3 3 1 1 0 1 1 1 4 4 3 3 1
5 4 4 4 5 5 4 3 3 3 2 2 2 3 3 4 4 4 4 3 3 3 2 2 2 4 4 4 4 3 4 3 2 2 1 1 1 1 0 1 2 3 3
4 4 4 4 4 3 3 3 3 3 3 3 2 3 3 3 4 4 5 5 4 3 3 3 3 4 5 5 4 3 3 3 2 2 1 0 1 1 1 1 2 2 3
3 4 4 3 3 3 4 4 3 3 3 3 3 3 3 3 3 6 6 6 6 4 3 4 4 4 3 3 3 4 3 2 2 2 2 2 2 2 1 0 0 0 1
4 4 3 3 3 3 3 4 4 4 4 4 4 4 4 3 3 3 3 3 4 4 3 3 3 3 2 2 2 2 2 2 2 3 2 1 1 0 0 1 1 1 1
4 4 3 4 4 4 4 4 5 5 6 6 5 5 5 5 6 6 4 4 4 3 2 1 1 1 1 1 1 1 1 1 1 1 1 1 1 1 1 1 1 0 1
3 4 3 4 3 3 3 2 3 4 6 6 6 6 6 7 7 7 7 7 6 6 4 2 3 3 3 3 3 2 2 2 2 2 2 2 2 2 1 1 1 1 2
5 5 4 4 4 4 4 4 3 2 3 5 6 6 6 6 6 7 7 6 6 8 4 3 4 4 3 3 3 3 3 3 3 3 3 3 3 2 2 2 1 2 2
5 5 5 4 4 4 5 4 4 4 3 2 4 5 5 5 5 6 6 5 3 4 3 4 4 4 4 4 4 3 3 2 2 3 3 3 3 3 2 2 2 2 3
5 4 4 4 4 4 4 4 4 4 3 2 2 2 3 4 4 4 6 4 4 4 4 4 4 4 4 4 3 3 3 3 3 3 3 3 3 3 3 3 3 3 3
4 6 5 4 4 4 4 4 4 4 3 3 3 3 2 2 2 3 3 4 4 4 4 4 4 4 4 4 3 3 3 3 4 3 3 3 3 3 3 3 3 3 3
3 4 6 4 4 4 4 5 5 4 4 4 4 4 4 4 4 4 4 4 5 5 4 4 4 4 4 3 3 4 4 4 4 3 3 3 3 3 3 3 3 2 2
3 3 4 4 4 4 5 4 4 4 5 4 3 3 5 3 3 4 4 4 4 4 4 4 4 4 4 5 5 5 5 4 4 4 4 3 3 3 3 2 2 2 2
3 4 4 4 4 5 4 4 4 5 5 4 4 3 3 4 4 4 4 4 4 3 3 3 3 3 4 5 5 6 6 5 5 6 5 4 3 3 3 3 2 2 2
3 4 4 4 4 4 4 4 4 4 4 4 4 4 4 4 4 4 4 3 3 3 3 4 4 5 6 5 5 6 7 6 6 6 6 5 4 3 3 3 3 2 2
3 3 4 4 4 4 4 4 4 4 4 4 4 4 3 3 3 3 3 3 3 3 4 4 4 5 6 7 6 6 7 7 7 7 7 6 5 4 3 3 2 2 1
3 3 3 3 4 4 4 4 4 4 4 4 4 4 4 4 3 3 2 2 2 2 3 3 4 5 5 6 7 7 7 8 8 8 7 6 5 4 4 3 3 2 2
Wind_Direction
177 183 184 198 182 167 184 218 208 191 176 170 173 157 158 171 140 137 184 168 154 265 263 172 208 196 160 154 149 148 154 145 159 262 281 303 55 28 31 49 38 21 18
179 171 183 180 160 172 210 227 187 174 179 179 163 144 156 190 170 175 215 212 189 221 238 196 222 183 153 162 158 167 176 171 160 179 245 336 300 317 9 15 16 15 11
170 172 179 182 186 205 217 211 175 160 147 134 136 155 185 208 210 215 209 217 212 228 227 213 216 169 176 177 171 170 175 164 150 161 203 228 340 41 40 14 19 12 9
174 178 192 204 202 207 207 191 180 166 155 155 160 181 192 202 211 211 204 226 239 252 237 216 208 192 197 188 180 175 162 148 139 144 172 216 224 10 102 57 358 3 360
172 190 210 211 197 189 187 184 175 166 173 173 158 173 189 191 220 212 207 223 233 276 279 240 223 212 208 196 190 181 165 159 153 154 178 201 234 207 214 207 207 335 342
178 205 210 192 186 183 192 182 169 168 165 149 170 191 207 257 253 228 202 203 215 229 255 267 254 246 232 214 207 190 174 171 180 181 198 214 236 226 203 189 174 99 307
190 209 206 194 189 193 191 175 185 186 168 169 198 204 221 246 255 244 226 197 207 225 233 243 269 274 216 170 188 191 198 198 187 181 194 217 219 212 185 192 197 199 225
195 210 215 202 198 193 180 191 202 191 186 194 205 213 224 250 252 247 239 205 213 233 233 222 220 257 230 169 158 150 205 221 209 196 206 220 218 197 188 188 189 186 261
211 217 216 206 201 195 200 210 208 195 207 209 205 208 220 249 251 238 192 170 210 244 247 226 213 230 229 168 152 160 213 262 230 205 216 228 218 191 163 130 131 129 281
224 222 214 205 202 207 211 214 209 196 205 202 218 221 222 238 246 232 181 171 195 235 254 238 219 218 219 176 171 175 212 240 203 152 325 334 16 163 174 172 176 176 203
224 216 210 207 210 211 206 202 194 191 191 202 225 244 236 239 243 234 201 187 196 207 224 246 243 226 220 197 180 195 211 191 166 164 156 5 23 37 74 185 182 189 204
209 209 216 214 213 205 189 198 192 185 191 210 224 253 254 247 238 236 223 213 202 203 223 231 235 224 217 200 190 199 186 150 134 129 135 253 274 278 271 205 201 209 224
204 215 221 220 218 202 194 196 193 191 197 211 216 236 255 250 242 238 232 223 213 214 229 225 221 216 213 200 192 174 153 145 144 160 207 247 254 252 219 110 62 124 346
208 216 212 208 216 210 202 196 195 199 206 214 221 232 244 246 239 232 224 219 212 215 230 222 211 208 183 165 156 160 155 170 177 194 212 234 253 247 257 237 261 277 345
208 213 213 209 203 207 213 212 209 214 209 209 218 218 220 237 237 216 205 213 206 199 161 144 146 143 158 156 138 136 154 160 188 198 200 216 227 236 279 272 242 223 235
214 217 212 208 205 205 210 242 248 233 232 228 227 225 231 231 229 218 218 220 205 173 157 180 193 197 203 203 198 206 207 210 211 207 209 214 221 233 254 278 231 212 235
212 218 213 208 205 206 206 208 236 273 248 236 235 229 226 222 219 213 211 209 192 168 176 202 206 208 212 208 207 209 216 217 204 201 209 215 216 220 225 237 235 234 247
217 218 211 208 206 206 209 213 214 215 236 265 252 232 226 222 216 208 188 157 175 182 203 207 213 211 209 209 208 214 217 209 205 205 209 215 213 213 219 230 232 234 247
220 218 210 205 204 205 206 208 212 213 219 234 265 253 228 215 204 199 172 180 197 207 213 216 214 211 208 204 205 208 205 207 206 199 206 211 210 209 222 231 234 236 243
223 224 212 202 200 200 202 205 208 211 215 219 227 231 194 162 190 199 198 203 209 216 214 214 214 211 203 197 197 199 201 205 202 203 208 210 209 209 218 224 229 234 243
221 220 213 204 201 202 203 209 211 210 214 220 230 229 199 199 208 209 211 215 218 221 218 214 211 207 201 195 195 200 203 209 209 207 208 209 204 208 216 220 229 237 248
214 213 208 206 206 206 208 211 211 214 216 220 235 231 207 208 212 215 219 224 225 224 212 201 203 202 200 197 196 201 204 209 208 206 205 207 206 205 207 214 223 243 255
207 211 214 215 211 208 209 212 215 217 217 216 216 212 209 216 220 221 224 226 223 213 197 191 197 203 204 204 201 199 203 211 207 198 195 198 201 202 201 209 214 226 250
209 211 213 212 207 209 211 216 218 217 217 210 208 211 215 220 224 226 226 225 219 210 199 196 202 206 204 203 205 208 210 206 195 190 187 186 188 190 193 200 207 215 221
211 214 213 210 208 211 213 215 215 212 210 208 209 213 216 218 223 227 230 223 211 206 201 201 207 208 207 207 207 206 202 193 187 181 176 179 181 182 181 186 195 197 205
218 217 214 206 207 210 209 210 212 210 212 214 214 215 214 214 217 220 223 222 214 210 208 208 210 207 205 205 202 196 190 185 182 178 170 173 179 184 180 184 184 182 185
Height
1542 1543 1544 1545 1546 1546 1546 1546 1546 1546 1546 1546 1546 1546 1546 1546 1546 1545 1545 1545 1545 1544 1544 1544 1544 1543 1543 1543 1543 1543 1543 1543 1542 1543 1542 1542 1542 1542 1541 1540 1540 1539 1538
1541 1542 1543 1543 1544 1544 1545 1545 1545 1545 1545 1545 1545 1545 1545 1544 1544 1544 1544 1544 1543 1543 1543 1543 1543 1542 1542 1542 1542 1542 1542 1542 1542 1541 1541 1541 1541 1541 1540 1540 1539 1539 1538
1539 1540 1541 1541 1542 1542 1543 1543 1543 1543 1543 1543 1543 1543 1543 1543 1543 1542 1542 1542 1542 1542 1541 1541 1541 1541 1541 1541 1541 1540 1540 1540 1541 1540 1540 1540 1540 1540 1540 1539 1539 1538 1537
1536 1537 1538 1539 1539 1540 1541 1541 1541 1542 1542 1542 1542 1542 1542 1541 1541 1541 1541 1540 1540 1540 1540 1539 1539 1539 1539 1539 1539 1539 1539 1539 1539 1539 1539 1539 1539 1539 1539 1538 1538 1537 1536
1534 1535 1535 1536 1537 1537 1538 1538 1539 1539 1539 1540 1540 1540 1540 1539 1539 1539 1539 1538 1538 1538 1538 1537 1537 1537 1537 1537 1537 1537 1537 1537 1537 1537 1537 1537 1537 1537 1537 1537 1536 1536 1535
1531 1532 1533 1533 1534 1534 1535 1535 1536 1536 1537 1537 1537 1537 1537 1537 1537 1537 1536 1536 1536 1535 1535 1535 1535 1534 1534 1535 1535 1535 1535 1535 1535 1535 1535 1535 1535 1535 1535 1535 1534 1534 1533
1529 1529 1530 1530 1531 1531 1532 1532 1533 1533 1534 1534 1534 1534 1534 1534 1534 1534 1533 1533 1533 1532 1532 1532 1532 1532 1532 1532 1532 1532 1532 1532 1533 1533 1533 1533 1533 1533 1533 1533 1532 1532 1531
1526 1526 1527 1527 1527 1528 1529 1529 1529 1530 1530 1530 1531 1531 1531 1531 1531 1530 1530 1530 1529 1529 1529 1529 1529 1529 1529 1529 1529 1529 1529 1529 1530 1530 1530 1530 1531 1531 1531 1531 1530 1530 1529
1522 1523 1523 1524 1524 1524 1525 1525 1526 1526 1526 1527 1527 1527 1527 1527 1527 1527 1527 1526 1526 1526 1526 1526 1526 1526 1526 1526 1526 1526 1526 1526 1527 1527 1527 1528 1528 1528 1528 1528 1528 1527 1527
1518 1519 1520 1520 1520 1521 1521 1522 1522 1522 1523 1523 1523 1524 1524 1523 1523 1523 1523 1522 1522 1522 1522 1523 1523 1523 1523 1522 1522 1523 1523 1523 1524 1524 1524 1524 1525 1525 1525 1525 1525 1525 1524
1515 1515 1516 1516 1517 1517 1517 1518 1518 1518 1519 1519 1519 1519 1520 1520 1519 1519 1519 1519 1518 1518 1519 1519 1519 1520 1520 1519 1519 1520 1520 1520 1520 1521 1521 1521 1521 1522 1522 1522 1522 1522 1521
1510 1511 1511 1512 1513 1513 1513 1513 1514 1514 1514 1514 1515 1515 1515 1515 1515 1515 1515 1515 1515 1515 1515 1515 1516 1516 1516 1516 1516 1517 1517 1517 1517 1517 1517 1517 1518 1518 1518 1518 1518 1518 1518
1506 1506 1507 1507 1508 1508 1509 1509 1509 1510 1510 1510 1510 1510 1510 1511 1511 1511 1511 1511 1511 1511 1511 1512 1512 1513 1513 1513 1513 1513 1513 1513 1514 1514 1514 1514 1515 1515 1515 1514 1514 1514 1513
1501 1501 1502 1503 1503 1504 1504 1505 1505 1505 1505 1505 1505 1505 1506 1506 1506 1506 1507 1507 1507 1507 1508 1508 1508 1509 1509 1509 1510 1510 1510 1511 1511 1511 1511 1511 1511 1511 1511 1510 1510 1510 1509
1496 1496 1497 1498 1499 1499 1500 1500 1500 1501 1501 1501 1501 1501 1501 1501 1502 1502 1502 1503 1503 1503 1504 1504 1504 1504 1504 1505 1506 1506 1507 1507 1507 1507 1507 1507 1507 1507 1507 1507 1506 1506 1505
1491 1492 1492 1493 1494 1495 1495 1495 1496 1497 1497 1497 1497 1497 1496 1497 1497 1497 1498 1499 1499 1499 1500 1499 1500 1500 1500 1501 1501 1502 1503 1503 1503 1503 1503 1503 1503 1503 1503 1503 1503 1502 1501
1487 1487 1487 1488 1489 1489 1490 1490 1491 1492 1492 1492 1492 1492 1492 1492 1493 1493 1494 1494 1495 1495 1495 1495 1496 1496 1497 1497 1498 1498 1499 1500 1500 1500 1500 1500 1500 1500 1499 1499 1499 1498 1498
1482 1482 1482 1483 1484 1484 1485 1486 1486 1486 1486 1487 1488 1488 1488 1488 1488 1489 1489 1489 1489 1490 1491 1491 1492 1492 1493 1494 1494 1494 1495 1495 1495 1495 1496 1496 1496 1496 1495 1495 1494 1494 1494
1476 1477 1477 1478 1479 1480 1480 1481 1481 1482 1482 1482 1483 1483 1484 1484 1484 1484 1484 1485 1485 1485 1486 1487 1488 1488 1489 1489 1490 1490 1490 1491 1491 1491 1491 1491 1492 1491 1491 1491 1491 1490 1490
1471 1472 1472 1473 1473 1474 1475 1476 1476 1477 1477 1478 1478 1478 1479 1478 1478 1479 1480 1480 1481 1481 1482 1483 1483 1484 1485 1485 1485 1486 1486 1486 1486 1487 1487 1487 1487 1487 1487 1487 1487 1486 1486
1466 1466 1467 1467 1468 1469 1470 1470 1471 1472 1473 1473 1474 1474 1474 1474 1474 1474 1475 1476 1477 1477 1477 1478 1479 1479 1480 1481 1481 1481 1481 1482 1482 1482 1483 1483 1483 1483 1483 1483 1483 1482 1482
1461 1461 1462 1462 1463 1464 1465 1466 1466 1467 1468 1468 1469 1470 1470 1470 1470 1470 1471 1472 1472 1473 1474 1474 1474 1475 1475 1476 1477 1477 1477 1477 1478 1478 1479 1479 1479 1479 1479 1479 1479 1478 1478
1456 1457 1457 1458 1458 1459 1460 1461 1461 1462 1463 1464 1465 1465 1465 1465 1466 1466 1466 1467 1467 1468 1469 1469 1470 1470 1471 1472 1472 1473 1473 1473 1474 1474 1474 1475 1475 1475 1475 1474 1474 1474 1473
1452 1452 1452 1453 1454 1454 1455 1456 1457 1457 1458 1459 1460 1460 1461 1461 1461 1461 1462 1462 1462 1463 1463 1464 1465 1465 1466 1467 1468 1468 1469 1469 1470 1470 1470 1470 1471 1471 1471 1470 1470 1470 1469
1447 1447 1448 1448 1449 1450 1450 1451 1452 1453 1453 1454 1455 1456 1456 1457 1457 1457 1457 1458 1458 1458 1459 1459 1460 1461 1461 1462 1463 1464 1464 1465 1465 1466 1466 1466 1466 1466 1466 1466 1466 1466 1465
1443 1443 1444 1444 1445 1445 1446 1447 1447 1448 1449 1450 1450 1451 1452 1452 1452 1453 1453 1453 1453 1453 1454 1455 1455 1456 1457 1458 1458 1459 1460 1460 1461 1462 1462 1462 1462 1462 1462 1462 1462 1462 1462